VK3BYD-3 Weather Reports


time (UTC)temp
F
wind
direction
speed
knots
gust
knots
rain 1hr
in
rain 24hr
in
rain mn
in
humidity
%
barometer
mb
20260505163337 41 347 0.0 0.0 0.00 0.00 0.00 97 1021.3
20260505161836 41 347 0.0 0.0 0.00 0.00 0.00 97 1021.5
20260505160336 42 347 0.0 0.0 0.00 0.00 0.00 97 1021.6
20260505153336 43 347 0.0 0.0 0.00 0.00 0.00 97 1021.7
20260505151833 43 347 0.0 0.0 0.00 0.00 0.00 97 1021.8
20260505150333 44 347 0.0 0.0 0.00 0.00 0.00 97 1021.9
20260505140326 43 347 0.0 0.0 0.00 0.00 0.00 95 1022.0
20260505124814 47 347 0.0 0.0 0.00 0.00 0.00 94 1022.1
20260505123314 48 347 0.0 0.0 0.00 0.00 0.00 95 1022.2
20260505121814 48 347 0.0 0.0 0.00 0.00 0.00 94 1022.4
20260505120315 49 347 0.0 0.0 0.00 0.00 0.00 94 1022.4
20260505114812 49 347 0.0 0.0 0.00 0.00 0.00 94 1022.3
20260505113310 50 347 0.0 0.0 0.00 0.00 0.00 93 1022.4
20260505111807 50 347 0.0 0.0 0.00 0.00 0.00 92 1022.4
20260505110304 51 347 0.0 0.0 0.00 0.00 0.00 92 1022.4
20260505101802 52 347 0.0 0.0 0.00 0.00 0.00 92 1022.4
20260505100302 52 347 0.0 0.0 0.00 0.00 0.00 91 1022.4
20260505094800 52 347 0.0 0.0 0.00 0.00 0.00 91 1022.4
20260505093258 53 347 0.0 0.0 0.00 0.00 0.00 90 1022.3
20260505091758 53 286 0.0 0.0 0.00 0.00 0.00 89 1022.2
20260505090258 53 286 0.0 0.0 0.00 0.00 0.00 88 1022.2
20260505084756 54 286 0.0 0.0 0.00 0.00 0.00 88 1022.0
20260505083256 54 286 0.0 0.0 0.00 0.00 0.00 87 1021.9
20260505081754 54 286 0.0 0.0 0.00 0.00 0.00 85 1021.7
20260505080254 55 278 0.0 0.0 0.00 0.00 0.00 82 1021.4
20260505074754 56 278 0.0 0.0 0.00 0.00 0.00 81 1021.2
20260505073254 58 278 0.0 0.9 0.00 0.00 0.00 77 1021.2
20260505071754 59 278 0.0 0.9 0.00 0.00 0.00 75 1020.9
20260505070256 60 278 0.0 0.9 0.00 0.00 0.00 73 1020.9
20260505064749 61 268 0.0 0.9 0.00 0.00 0.00 70 1020.7
20260505063246 64 285 0.0 2.6 0.00 0.00 0.00 67 1020.6
20260505061748 65 49 0.0 2.6 0.00 0.00 0.00 68 1020.5
20260505060248 66 323 0.0 1.7 0.00 0.00 0.00 66 1020.6
20260505054747 65 319 0.0 4.3 0.00 0.00 0.00 68 1020.5
20260505053247 65 38 0.9 4.3 0.00 0.00 0.00 69 1020.4
20260505051747 65 326 0.9 2.6 0.00 0.00 0.00 69 1020.3
20260505050247 63 303 0.9 4.3 0.00 0.00 0.00 72 1020.1
20260505041749 63 314 0.0 1.7 0.00 0.00 0.00 73 1019.9
20260505040251 62 94 0.0 2.6 0.00 0.00 0.00 72 1019.9
20260505034747 63 248 0.0 2.6 0.00 0.00 0.00 72 1019.8
20260505033245 63 119 0.0 2.6 0.00 0.00 0.00 74 1019.7
20260505031744 62 39 0.0 2.6 0.00 0.00 0.00 74 1019.8
20260505030242 62 283 0.9 3.5 0.00 0.00 0.00 75 1019.8
20260505024741 63 264 0.0 1.7 0.00 0.00 0.00 73 1019.8
20260505023242 62 262 0.0 3.5 0.00 0.00 0.00 74 1019.8
20260505021741 62 286 0.9 3.5 0.00 0.00 0.00 73 1019.8
20260505020241 61 291 0.9 4.3 0.00 0.00 0.00 74 1019.9
20260505014736 61 283 0.9 2.6 0.00 0.00 0.00 77 1019.9
20260505013235 60 37 0.9 2.6 0.00 0.00 0.00 77 1020.1
20260505011736 59 288 0.9 1.7 0.00 0.00 0.00 81 1020.2
20260505010235 58 152 0.0 1.7 0.00 0.00 0.00 82 1020.3
20260505004733 58 54 0.0 0.9 0.00 0.00 0.00 82 1020.2
20260505003230 58 27 0.0 0.9 0.00 0.00 0.00 84 1020.2
20260505001729 57 351 0.0 2.6 0.00 0.00 0.00 87 1020.2
20260505000229 56 48 0.0 1.7 0.00 0.00 0.00 87 1020.1
20260504234727 55 35 0.0 0.9 0.00 0.00 0.00 90 1019.9
20260504233225 54 15 0.0 0.9 0.00 0.00 0.00 90 1020.0
20260504231717 54 34 0.0 0.9 0.00 0.00 0.00 93 1020.0
20260504230216 53 269 0.0 2.6 0.00 0.00 0.00 94 1019.9
20260504224715 52 103 0.0 2.6 0.00 0.00 0.00 94 1019.8
20260504223302 52 278 0.0 0.9 0.00 0.00 0.00 96 1019.5
20260504221715 52 254 0.0 0.9 0.00 0.00 0.00 96 1019.4
20260504220211 52 275 0.0 0.9 0.00 0.00 0.00 97 1019.2
20260504214711 51 274 0.0 0.0 0.00 0.00 0.00 97 1018.9
20260504213211 50 274 0.0 0.0 0.00 0.00 0.00 97 1018.7
20260504211711 49 274 0.0 0.0 0.00 0.00 0.00 96 1018.6
20260504210212 48 274 0.0 0.0 0.00 0.00 0.00 96 1018.3
20260504204711 47 274 0.0 0.0 0.00 0.00 0.00 95 1018.2
20260504203211 47 274 0.0 0.0 0.00 0.01 0.00 94 1018.1
20260504201711 48 274 0.0 0.0 0.00 0.01 0.00 94 1017.8
20260504200211 49 274 0.0 0.0 0.00 0.01 0.00 94 1017.6
20260504194710 50 274 0.0 0.0 0.00 0.01 0.00 93 1017.5
20260504193211 51 274 0.0 1.7 0.00 0.01 0.00 93 1017.6
20260504191711 52 288 0.0 0.9 0.00 0.01 0.00 93 1017.5
20260504190209 52 287 0.0 0.9 0.00 0.01 0.00 93 1017.5
20260504184707 52 266 0.0 0.9 0.00 0.01 0.00 93 1017.5
20260504183207 52 266 0.0 0.9 0.00 0.01 0.00 93 1017.2
20260504181707 52 266 0.0 2.6 0.00 0.01 0.00 93 1017.1
20260504180207 52 307 0.0 0.9 0.00 0.01 0.00 94 1016.9
20260504174705 52 307 0.0 1.7 0.00 0.01 0.00 94 1016.9
20260504173205 52 24 0.0 2.6 0.00 0.01 0.00 95 1016.7
20260504171704 51 279 0.0 1.7 0.00 0.01 0.00 95 1016.5
20260504170201 51 274 0.0 0.9 0.00 0.01 0.00 95 1016.5